Voltar ao catálogo

FENGYUN 1C DEB

AtivoSSO
NORAD 30758·DEBRIS·🇨🇳 China

Lançado May 10, 1999 de Taiyuan Satellite Launch Center

Loading…

Próximas Passagens (próximas 24 horas)

TLE

AtualizadoSource: Space-Track

Época: Sep 14, 2026, 06:52 UTC

1 30758U 99025ATU 26257.28621213  .00001197  00000-0  60070-3 0  9999
2 30758  99.0406  25.4204 0038407 299.9106  88.8042 14.18168675  3930

Acompanhe FENGYUN 1C DEB em tempo real com AllMySat

Download on the App Store